Location: *
(46.1833°N, 22.7667°E)
Time: 11:18:03
(UTC+00:00)

COSMOS 2428 - Pass Details

Date: 17 September 2019
Orbit: 845 x 856 km, 70.9° (Epoch: 21 October)

Event Time Altitude Azimuth Distance (km) Brightness Sun altitude
Rises 17:07:47 0° 336° (NNW) 3,416 6.4 -6.1°
Reaches altitude 10° 17:10:18 10° 341° (NNW) 2,477 5.6 -6.5°
Maximum altitude 17:15:52 53° 58° (ENE) 1,038 2.9 -7.4°
Drops below altitude 10° 17:21:23 10° 135° (SE) 2,465 4.6 -8.4°
Enters shadow 17:22:51 - 138° (SE) 3,009 5.1 -8.6°
